[[{"header":{"parameterUnit":"m.s-1","parameterCategory":2,"la1":30.2991,"la2":30.254,"lo1":-89.0895,"lo2":-89.0444,"dy":0.0017,"dx":0.0017,"nx":28,"ny":28,"refTime":"2025-01-19T09:00:00:Z","depth":"0","parameterNumber":2,"parameterNumberName":"U-component_of_CURRENTS"},"data":[0,0,0,0,0,0,0,0,0,0,0,0,0,0,0,0,0,0,0,0,0,0,0,0,0,0,0,0,0,0,0,0,0,0,0,0,0,0,0,0,0,0,0,0,0,0,0,0,0,0,0,0,0,0,0,0,0,0,0.2875,0.2876,0,0.2881,0.2879,0.2878,0.2786,0.2784,0.2783,0.2782,0.2697,0.2696,0.2695,0,0,0,0,0,0,0,0,0,0,0,0,0,0.271,0.2713,0.2875,0.2876,0.2877,0.2881,0.2879,0.2878,0.2786,0.2784,0.2783,0.2781,0.2697,0.2696,0.2695,0,0,0,0,0,0,0,0,0,0,0,0,0,0.2742,0.2714,0.2874,0.2842,0.284,0.2881,0.2879,0.2878,0.2786,0.2784,0.2782,0.2781,0.2698,0.2696,0.2695,0.272,0,0,0.2689,0.2689,0,0,0,0,0,0,0,0,0.274,0.2746,0.2846,0.2845,0.2843,0.2843,0.2791,0.2826,0.2786,0.2792,0.2782,0.278,0.2748,0.2742,0.2728,0.2716,0.2713,0.2689,0.2688,0.2687,0.2687,0,0,0,0,0,0,0,0.2738,0.2745,0.2862,0.2848,0.2846,0.2804,0.2805,0.2796,0.2767,0.2791,0.2788,0.2812,0.2744,0.273,0.2726,0.2711,0.2689,0.2688,0.2687,0.2686,0.2787,0.279,0,0,0,0,0,0,0.2773,0.2744,0.2862,0.2864,0.2802,0.281,0.281,0.2833,0.2769,0.2763,0.2814,0.2808,0.2734,0.2728,0.2722,0.2769,0.2687,0.2686,0.2685,0.2783,0.2788,0.2792,0,0,0,0,0,0,0.277,0.2784,0.2862,0.2815,0.2824,0.2816,0.2841,0.2835,0.2825,0.279,0.2778,0.2813,0.2732,0.2725,0.2748,0.2764,0.2685,0.2683,0.2779,0.2785,0.279,0.285,0,0,0,0,0,0,0.2765,0.2782,0.2798,0.2818,0.2829,0.2886,0.2844,0.2836,0.2849,0.2841,0.2786,0.2776,0.273,0.2752,0.2747,0.276,0.2682,0.2774,0.2781,0.2788,0.2843,0.2857,0.2869,0,0,0,0,0,0.2759,0.2799,0.2798,0.2813,0.2855,0.2889,0.2887,0.2865,0.2852,0.2848,0.2841,0.2777,0.2792,0.2754,0.2747,0.276,0.2771,0.2779,0.2787,0.2838,0.2854,0.2868,0,0,0,0,0,0,0.2743,0.2796,0.2794,0.285,0.2869,0.2878,0.2887,0.2882,0.2872,0.2866,0.2821,0.2812,0.283,0.2816,0.2775,0.2821,0.2773,0.278,0.2814,0.2829,0.2841,0.2842,0.2681,0,0,0,0,0,0.2753,0.2788,0.2827,0.287,0.2883,0.2887,0.2898,0.2891,0.2899,0.289,0.2867,0.2861,0.2862,0.2862,0.285,0.2884,0.2893,0.2896,0.2909,0.2919,0.2923,0.2982,0.2999,0.2819,0.2819,0.2819,0,0,0.276,0.2798,0.2816,0.2868,0.2876,0.2903,0.2884,0.2913,0.2933,0.2887,0.2903,0.2893,0.2883,0.2906,0.2915,0.2894,0.2983,0.293,0.2938,0.2936,0.2992,0.3009,0.3024,0.2825,0.2824,0.2823,0,0,0.2792,0.2825,0.2854,0.2874,0.2912,0.2924,0.2942,0.2962,0.2959,0.2991,0.2969,0.2993,0.2984,0.2989,0.2989,0.308,0.304,0.3076,0.3138,0.3196,0.321,0.3223,0.3273,0.3289,0.309,0.3091,0.3091,0,0.2785,0.2842,0.2867,0.2896,0.2923,0.294,0.297,0.2983,0.301,0.3033,0.3002,0.3044,0.3022,0.3078,0.3103,0.3101,0.3129,0.3067,0.3208,0.3221,0.3232,0.328,0.3298,0.3095,0.3094,0.3094,0.3093,0,0.2842,0.2871,0.2895,0.2937,0.2966,0.3,0.3036,0.3061,0.3072,0.3092,0.3142,0.3137,0.3165,0.3167,0.3151,0.3237,0.3229,0.3205,0.3156,0.3253,0.3299,0.3316,0.31,0.3099,0.3098,0.3097,0,0,0.2837,0.2915,0.2911,0.2929,0.299,0.3015,0.3073,0.3132,0.3174,0.3195,0.3256,0.3271,0.328,0.3286,0.3284,0.3332,0.3432,0.3308,0.3309,0.3334,0.3566,0.3479,0.3488,0.3431,0.3434,0.3437,0.3569,0,0.2855,0.2906,0.2955,0.2998,0.3022,0.307,0.3124,0.3181,0.3221,0.3284,0.3315,0.3357,0.3325,0.3342,0.3392,0.3418,0.3478,0.3399,0.3489,0.3492,0.3382,0.3505,0.3436,0.354,0.3585,0.3588,0.359,0,0.2873,0.2907,0.295,0.3022,0.304,0.3076,0.3164,0.322,0.3323,0.3357,0.3425,0.3447,0.3534,0.348,0.3593,0.3546,0.3569,0.3582,0.3588,0.3491,0.3435,0.3452,0.3568,0.3586,0.3615,0.3613,0.3611,0,0.2828,0.2895,0.293,0.295,0.3041,0.3076,0.3134,0.3234,0.3292,0.3412,0.3459,0.3562,0.3606,0.3666,0.369,0.3659,0.38,0.3761,0.3711,0.3705,0.3655,0.3638,0.3773,0.385,0.385,0.385,0.3849,0,0.2818,0.2834,0.2904,0.2917,0.2967,0.3046,0.3119,0.3195,0.3314,0.3378,0.3491,0.3545,0.3653,0.3731,0.3751,0.3786,0.3859,0.3747,0.3743,0.3676,0.3661,0.3675,0.3663,0.3855,0.3854,0.3853,0.3852,0,0.2742,0.2797,0.2836,0.2921,0.2943,0.2976,0.309,0.3133,0.3271,0.3359,0.3401,0.3566,0.3659,0.375,0.3854,0.3848,0.3819,0.3882,0.3789,0.377,0.3696,0.3689,0.3596,0.3471,0.3864,0.3863,0.3862,0,0.271,0.2717,0.28,0.2807,0.2838,0.2897,0.2926,0.3081,0.3135,0.3337,0.3365,0.3518,0.3588,0.3744,0.3782,0.385,0.3766,0.3807,0.372,0.3709,0.3701,0.3525,0.3413,0.3703,0.37,0.3699,0.3697,0,0.2626,0.2656,0.2676,0.2702,0.2726,0.277,0.2835,0.289,0.3061,0.3152,0.3271,0.3361,0.3524,0.3585,0.3695,0.3713,0.3672,0.3765,0.3804,0.363,0.3402,0.3273,0.3597,0.3681,0.3682,0.3684,0.3684,0.3685,0.2533,0.2528,0.2553,0.2571,0.2594,0.2625,0.2637,0.2729,0.2826,0.2966,0.3109,0.3236,0.3446,0.3588,0.3572,0.3614,0.3509,0.3596,0.3608,0.3444,0.3255,0.3521,0.355,0.3551,0.3551,0.3552,0.3553,0,0.2389,0.2397,0.241,0.243,0.2408,0.2479,0.2538,0.2543,0.26,0.2813,0.2916,0.3182,0.3312,0.3461,0.3615,0.3555,0.3341,0.3499,0.331,0.3216,0.3551,0.3479,0.3431,0.3431,0.3431,0.3431,0.3431,0.3431,0.2303,0.2269,0.2295,0.2235,0.224,0.2205,0.2222,0.2255,0.2391,0.2584,0.2773,0.2963,0.3393,0.3718,0.3766,0.364,0.3394,0.3233,0.3172,0.3548,0.3559,0.357,0.3505,0.3463,0.3463,0.2712,0.2708,0.2704]},{"header":{"parameterUnit":"m.s-1","parameterCategory":2,"la1":30.2991,"la2":30.254,"lo1":-89.0895,"lo2":-89.0444,"dy":0.0017,"dx":0.0017,"nx":28,"ny":28,"refTime":"2025-01-19T09:00:00:Z","depth":"0","parameterNumber":3,"parameterNumberName":"V-component_of_CURRENTS"},"data":[0,0,0,0,0,0,0,0,0,0,0,0,0,0,0,0,0,0,0,0,0,0,0,0,0,0,0,0,0,0,0,0,0,0,0,0,0,0,0,0,0,0,0,0,0,0,0,0,0,0,0,0,0,0,0,0,0,0,-0.0985,-0.0986,0,-0.1021,-0.102,-0.102,-0.0998,-0.0998,-0.0998,-0.0998,-0.1088,-0.1091,-0.1093,0,0,0,0,0,0,0,0,0,0,0,0,0,-0.0873,-0.0874,-0.0985,-0.0986,-0.0988,-0.1021,-0.102,-0.102,-0.0998,-0.0998,-0.0998,-0.0998,-0.1088,-0.109,-0.1093,0,0,0,0,0,0,0,0,0,0,0,0,0,-0.0906,-0.0875,-0.0984,-0.0989,-0.099,-0.1021,-0.102,-0.102,-0.0998,-0.0998,-0.0998,-0.0998,-0.1087,-0.109,-0.1094,-0.1117,0,0,-0.1105,-0.1107,0,0,0,0,0,0,0,0,-0.0904,-0.0909,-0.0987,-0.0989,-0.0991,-0.1015,-0.1015,-0.1059,-0.0998,-0.0984,-0.0998,-0.0998,-0.1076,-0.1081,-0.1071,-0.1121,-0.1125,-0.1105,-0.1107,-0.1109,-0.111,0,0,0,0,0,0,0,-0.0902,-0.0907,-0.0988,-0.0989,-0.0991,-0.0982,-0.0985,-0.1022,-0.1022,-0.0985,-0.0986,-0.1008,-0.1076,-0.1067,-0.1073,-0.1127,-0.1105,-0.1108,-0.1111,-0.1112,-0.1202,-0.1202,0,0,0,0,0,0,-0.0921,-0.0905,-0.0987,-0.099,-0.0959,-0.0985,-0.0988,-0.0998,-0.1021,-0.1027,-0.1008,-0.1007,-0.1061,-0.1069,-0.1077,-0.1051,-0.1109,-0.1112,-0.1115,-0.1202,-0.1202,-0.1203,0,0,0,0,0,0,-0.0918,-0.0928,-0.0986,-0.0958,-0.0966,-0.0988,-0.0998,-0.0999,-0.0985,-0.1039,-0.1044,-0.0995,-0.1061,-0.1072,-0.1117,-0.1057,-0.1114,-0.1117,-0.1202,-0.1202,-0.1202,-0.1037,0,0,0,0,0,0,-0.0915,-0.0926,-0.0931,-0.0959,-0.0969,-0.0974,-0.1,-0.1,-0.1005,-0.1003,-0.103,-0.1038,-0.1062,-0.1112,-0.1121,-0.1063,-0.112,-0.1202,-0.1202,-0.1202,-0.1042,-0.1031,-0.1022,0,0,0,0,0,-0.091,-0.0919,-0.0931,-0.0941,-0.0977,-0.0974,-0.0974,-0.0984,-0.1004,-0.0974,-0.1027,-0.1037,-0.112,-0.1116,-0.1126,-0.1067,-0.1201,-0.1202,-0.1202,-0.1046,-0.1033,-0.1022,0,0,0,0,0,0,-0.0879,-0.092,-0.0933,-0.0955,-0.0953,-0.0973,-0.0967,-0.098,-0.0994,-0.0998,-0.1052,-0.1063,-0.1066,-0.1119,-0.1113,-0.1103,-0.1158,-0.116,-0.1035,-0.1024,-0.1014,-0.0974,-0.1123,0,0,0,0,0,-0.0878,-0.0889,-0.0916,-0.093,-0.0929,-0.0946,-0.095,-0.0947,-0.0975,-0.0977,-0.1006,-0.105,-0.1077,-0.1094,-0.112,-0.1133,-0.1168,-0.1105,-0.1095,-0.1086,-0.1066,-0.1095,-0.1084,-0.1204,-0.1204,-0.1204,0,0,-0.0878,-0.09,-0.091,-0.0923,-0.0925,-0.088,-0.0942,-0.093,-0.0894,-0.0991,-0.096,-0.1011,-0.1076,-0.1068,-0.1075,-0.1104,-0.107,-0.1087,-0.1077,-0.1062,-0.1094,-0.1082,-0.1071,-0.1204,-0.1204,-0.1204,0,0,-0.0834,-0.0888,-0.085,-0.0835,-0.0832,-0.0842,-0.0836,-0.0839,-0.0841,-0.0838,-0.0893,-0.0927,-0.0966,-0.0989,-0.1014,-0.0982,-0.1012,-0.0985,-0.0899,-0.0927,-0.0915,-0.0906,-0.0919,-0.0912,-0.0984,-0.0984,-0.0984,0,-0.081,-0.0776,-0.0836,-0.077,-0.0756,-0.0815,-0.0742,-0.075,-0.0766,-0.0776,-0.0807,-0.0865,-0.0919,-0.092,-0.0903,-0.0949,-0.0971,-0.0926,-0.0907,-0.0899,-0.0893,-0.0908,-0.0903,-0.0976,-0.0977,-0.0978,-0.0979,0,-0.0715,-0.0673,-0.0651,-0.0589,-0.0585,-0.0538,-0.0563,-0.0553,-0.0587,-0.0606,-0.062,-0.0702,-0.0743,-0.0756,-0.0817,-0.0792,-0.0822,-0.088,-0.092,-0.0869,-0.0891,-0.0888,-0.0965,-0.0968,-0.097,-0.0972,0,0,-0.0634,-0.0589,-0.0559,-0.0507,-0.0481,-0.0463,-0.0425,-0.0412,-0.0392,-0.0428,-0.0409,-0.047,-0.0538,-0.0574,-0.0651,-0.0676,-0.065,-0.0745,-0.0751,-0.0725,-0.0689,-0.069,-0.0688,-0.0695,-0.0694,-0.0693,-0.0715,0,-0.0504,-0.0367,-0.0384,-0.0252,-0.0185,-0.0234,-0.0196,-0.0207,-0.0247,-0.0248,-0.0351,-0.0366,-0.0464,-0.0482,-0.0522,-0.0622,-0.0638,-0.0637,-0.0771,-0.0774,-0.0755,-0.0684,-0.0685,-0.0703,-0.0713,-0.0713,-0.0712,0,-0.0352,-0.0287,-0.015,-0.0087,-0.0064,-0.001,0.0009,0.0036,-0.001,-0.0052,-0.0105,-0.0189,-0.0245,-0.0339,-0.0456,-0.0449,-0.0545,-0.0623,-0.0627,-0.0681,-0.077,-0.0764,-0.0699,-0.0907,-0.0709,-0.0709,-0.071,0,-0.0243,-0.0109,-0.0015,0.0017,0.0071,0.0107,0.0126,0.0105,0.0122,0.0069,0.0071,-0.0031,-0.0074,-0.0201,-0.0378,-0.041,-0.05,-0.0579,-0.0663,-0.0665,-0.0719,-0.0727,-0.0843,-0.0638,-0.0638,-0.0638,-0.0638,0,-0.009,0.0008,0.0044,0.0107,0.022,0.0208,0.0295,0.0285,0.0278,0.0308,0.0175,0.0181,-0.0038,-0.0132,-0.0305,-0.046,-0.0451,-0.0615,-0.066,-0.0663,-0.0665,-0.0896,-0.1038,-0.0639,-0.0638,-0.0638,-0.0638,0,0.0035,0.0061,0.0176,0.0244,0.0275,0.0349,0.0416,0.0459,0.0439,0.0477,0.0469,0.0355,0.0228,0.0017,-0.0188,-0.0351,-0.0634,-0.0575,-0.0552,-0.0593,-0.0866,-0.0999,-0.1164,-0.1263,-0.0659,-0.0659,-0.0659,0,0.0103,0.0177,0.0274,0.0329,0.037,0.0467,0.0526,0.0537,0.0583,0.0588,0.0618,0.0521,0.0453,0.0161,-0.014,-0.0408,-0.063,-0.0584,-0.0652,-0.0847,-0.1031,-0.1123,-0.1201,-0.0662,-0.0662,-0.0662,-0.0662,0,0.0229,0.0252,0.0327,0.0449,0.0525,0.0621,0.0714,0.0785,0.0793,0.0836,0.0871,0.0832,0.054,0.0271,-0.01,-0.0315,-0.0743,-0.0591,-0.0811,-0.1037,-0.113,-0.1258,-0.068,-0.0663,-0.0663,-0.0662,-0.0662,-0.0662,0.0303,0.0371,0.0449,0.0563,0.0652,0.0764,0.0873,0.0952,0.1062,0.1148,0.1081,0.1065,0.0644,0.0136,-0.0178,-0.0737,-0.0762,-0.0915,-0.1056,-0.1125,-0.1234,-0.0634,-0.0661,-0.0661,-0.0661,-0.0661,-0.0661,0,0.039,0.0451,0.0555,0.0684,0.079,0.0826,0.0984,0.1092,0.1244,0.1306,0.1343,0.1128,0.0612,0.0074,-0.0666,-0.11,-0.1288,-0.1363,-0.1521,-0.1576,-0.1053,-0.1067,-0.1163,-0.1163,-0.1163,-0.1162,-0.1162,-0.1162,0.0435,0.0534,0.0578,0.0764,0.0866,0.1041,0.1146,0.1304,0.1409,0.1524,0.152,0.1454,0.1038,-0.0345,-0.1306,-0.1563,-0.1923,-0.2002,-0.2164,-0.1849,-0.1818,-0.179,-0.1834,-0.209,-0.2091,-0.2621,-0.2627,-0.2632]}],[{"header":{"parameterUnit":"m.s-1","parameterCategory":2,"la1":30.2991,"la2":30.254,"lo1":-89.0895,"lo2":-89.0444,"dy":0.0017,"dx":0.0017,"nx":28,"ny":28,"refTime":"2025-01-19T09:00:00:Z","depth":"2","parameterNumber":2,"parameterNumberName":"U-component_of_CURRENTS"},"data":[0,0,0,0,0,0,0,0,0,0,0,0,0,0,0,0,0,0,0,0,0,0,0,0,0,0,0,0,0,0,0,0,0,0,0,0,0,0,0,0,0,0,0,0,0,0,0,0,0,0,0,0,0,0,0,0,0,0,0.2698,0.2698,0,0.2681,0.268,0.268,0.2604,0.2603,0.2602,0.26,0.2544,0.2544,0.2544,0,0,0,0,0,0,0,0,0,0,0,0,0,0.2624,0.2625,0.2698,0.2698,0.2698,0.2681,0.268,0.268,0.2605,0.2603,0.2601,0.26,0.2544,0.2544,0.2544,0,0,0,0,0,0,0,0,0,0,0,0,0,0.2632,0.2626,0.2698,0.2662,0.2659,0.2681,0.268,0.268,0.2605,0.2603,0.2601,0.2599,0.2544,0.2544,0.2544,0.2582,0,0,0.2542,0.2542,0,0,0,0,0,0,0,0,0.2632,0.2635,0.2667,0.2664,0.2661,0.2647,0.2634,0.2647,0.2606,0.2621,0.26,0.2598,0.2579,0.2576,0.2571,0.258,0.2577,0.2542,0.2542,0.2542,0.2542,0,0,0,0,0,0,0,0.2632,0.2635,0.2687,0.2667,0.2664,0.2633,0.2632,0.2636,0.2607,0.2619,0.2615,0.2621,0.2576,0.2572,0.257,0.2576,0.2542,0.2542,0.2542,0.2542,0.27,0.2704,0,0,0,0,0,0,0.2648,0.2635,0.2687,0.2686,0.2646,0.2636,0.2635,0.265,0.2608,0.2601,0.2623,0.2617,0.2574,0.257,0.2567,0.2641,0.2542,0.2542,0.2542,0.2696,0.2701,0.2706,0,0,0,0,0,0,0.2646,0.2653,0.2688,0.2663,0.2665,0.2641,0.2657,0.2651,0.2655,0.2612,0.2603,0.2635,0.2572,0.2568,0.2623,0.2636,0.2542,0.2541,0.2691,0.2698,0.2704,0.2768,0,0,0,0,0,0,0.2644,0.2653,0.2672,0.2665,0.2668,0.2713,0.266,0.2652,0.2663,0.2656,0.262,0.2612,0.257,0.2625,0.2623,0.2634,0.2541,0.2685,0.2694,0.2701,0.2761,0.2776,0.279,0,0,0,0,0,0.2642,0.2674,0.2673,0.268,0.2695,0.2715,0.2714,0.2685,0.2666,0.2679,0.2687,0.2613,0.2675,0.2629,0.2626,0.2636,0.2681,0.2691,0.2701,0.2754,0.2773,0.2789,0,0,0,0,0,0,0.2653,0.267,0.2668,0.2705,0.2717,0.2704,0.2715,0.2706,0.2721,0.2718,0.2676,0.2671,0.2711,0.2702,0.2652,0.2719,0.2664,0.2674,0.2706,0.2723,0.2738,0.2728,0.2541,0,0,0,0,0,0.267,0.2694,0.2708,0.2738,0.2749,0.2741,0.2748,0.2735,0.2746,0.2748,0.2737,0.2742,0.2752,0.2761,0.2763,0.2815,0.2819,0.2826,0.2841,0.2853,0.2852,0.2912,0.293,0.2739,0.2739,0.2738,0,0,0.268,0.2696,0.2708,0.2742,0.2745,0.2773,0.2738,0.276,0.2784,0.2744,0.2786,0.2786,0.2782,0.2824,0.2842,0.2815,0.2918,0.2865,0.2874,0.2867,0.2924,0.2941,0.2957,0.2745,0.2744,0.2743,0,0,0.2712,0.2734,0.2762,0.2778,0.2802,0.2807,0.2824,0.2837,0.2841,0.2893,0.2872,0.2909,0.2922,0.2928,0.2929,0.3043,0.2988,0.304,0.3101,0.316,0.3174,0.3187,0.3234,0.325,0.3052,0.3052,0.3052,0,0.2712,0.2761,0.2774,0.2804,0.2822,0.2831,0.2864,0.2882,0.2915,0.2941,0.2916,0.2979,0.2966,0.3026,0.3058,0.3065,0.3091,0.3018,0.3173,0.3185,0.3197,0.3242,0.3259,0.3057,0.3056,0.3056,0.3055,0,0.2774,0.2799,0.2819,0.2861,0.2891,0.292,0.2951,0.2989,0.3002,0.3019,0.3083,0.3094,0.3128,0.3133,0.3118,0.3205,0.3195,0.3172,0.311,0.3219,0.3261,0.3278,0.3063,0.3061,0.306,0.3059,0,0,0.2769,0.2843,0.284,0.2859,0.2919,0.2939,0.3009,0.3067,0.3108,0.3146,0.3207,0.3237,0.3245,0.3254,0.3252,0.33,0.3403,0.3276,0.3277,0.329,0.3535,0.3431,0.3439,0.3404,0.3407,0.341,0.3535,0,0.2794,0.2844,0.2894,0.2941,0.2963,0.301,0.3071,0.3129,0.3172,0.3241,0.3273,0.3323,0.3292,0.3312,0.3363,0.339,0.3448,0.337,0.3455,0.3458,0.3325,0.3455,0.3156,0.3233,0.3551,0.3553,0.3555,0,0.2823,0.285,0.2897,0.2962,0.2981,0.3023,0.3111,0.3172,0.3278,0.3314,0.3385,0.3411,0.35,0.3448,0.3562,0.3516,0.3537,0.3551,0.3556,0.344,0.3384,0.3177,0.325,0.3582,0.358,0.3578,0.3576,0,0.278,0.2844,0.2877,0.2896,0.2985,0.3023,0.3083,0.3186,0.3245,0.3368,0.3416,0.3523,0.3569,0.3631,0.3654,0.3627,0.3762,0.3729,0.3661,0.3654,0.3404,0.3369,0.3816,0.3816,0.3816,0.3815,0.3815,0,0.277,0.2784,0.285,0.2863,0.291,0.2992,0.3067,0.3144,0.3265,0.3329,0.3447,0.3499,0.3615,0.3692,0.3713,0.3738,0.3818,0.3694,0.3689,0.3423,0.339,0.3684,0.3667,0.382,0.3819,0.3818,0.3817,0,0.2695,0.2749,0.2782,0.2864,0.2887,0.2919,0.3037,0.3081,0.3219,0.3308,0.3352,0.3515,0.3603,0.3697,0.3801,0.3792,0.3834,0.3816,0.3491,0.3445,0.3678,0.3664,0.3784,0.3781,0.3779,0.3778,0.3776,0,0.2662,0.2666,0.2746,0.2753,0.2782,0.2841,0.2873,0.3029,0.3082,0.328,0.3307,0.3455,0.3512,0.3657,0.3655,0.3708,0.3782,0.3473,0.336,0.3697,0.3681,0.367,0.3658,0.3072,0.3065,0.3059,0.3054,0,0.2572,0.2603,0.2624,0.2644,0.267,0.2715,0.2781,0.2832,0.3004,0.3087,0.3195,0.3273,0.3389,0.3311,0.3393,0.3377,0.3444,0.3355,0.3815,0.3116,0.3033,0.3014,0.3026,0.3003,0.3008,0.3012,0.3015,0.3017,0.248,0.2471,0.2498,0.2511,0.2536,0.2565,0.2576,0.2651,0.2736,0.2811,0.2971,0.2964,0.3044,0.2986,0.2946,0.2922,0.3154,0.3043,0.3058,0.308,0.2965,0.2882,0.2802,0.2806,0.2809,0.2812,0.2815,0,0.2329,0.2338,0.2349,0.2366,0.2338,0.2418,0.2475,0.2439,0.2458,0.2543,0.2589,0.2399,0.2391,0.2463,0.2348,0.2415,0.2372,0.233,0.2239,0.2293,0.2341,0.2184,0.1817,0.1813,0.181,0.1808,0,0,0.2241,0.2201,0.2222,0.2155,0.2165,0.2116,0.2131,0.2093,0.2113,0.2039,0.2005,0.2175,0.2334,0.1992,0.2013,0.1883,0.2057,0.1812,0.2614,0.2554,0.2597,0.276,0.2581,0,0,0,0,0]},{"header":{"parameterUnit":"m.s-1","parameterCategory":2,"la1":30.2991,"la2":30.254,"lo1":-89.0895,"lo2":-89.0444,"dy":0.0017,"dx":0.0017,"nx":28,"ny":28,"refTime":"2025-01-19T09:00:00:Z","depth":"2","parameterNumber":3,"parameterNumberName":"V-component_of_CURRENTS"},"data":[0,0,0,0,0,0,0,0,0,0,0,0,0,0,0,0,0,0,0,0,0,0,0,0,0,0,0,0,0,0,0,0,0,0,0,0,0,0,0,0,0,0,0,0,0,0,0,0,0,0,0,0,0,0,0,0,0,0,-0.0452,-0.0449,0,-0.0466,-0.0469,-0.0472,-0.0595,-0.0595,-0.0595,-0.0594,-0.0754,-0.0758,-0.0762,0,0,0,0,0,0,0,0,0,0,0,0,0,-0.0646,-0.0644,-0.0452,-0.0449,-0.0446,-0.0465,-0.0469,-0.0473,-0.0595,-0.0595,-0.0595,-0.0594,-0.0752,-0.0757,-0.0763,0,0,0,0,0,0,0,0,0,0,0,0,0,-0.0634,-0.0643,-0.0453,-0.0484,-0.0484,-0.0465,-0.0469,-0.0474,-0.0595,-0.0595,-0.0595,-0.0594,-0.075,-0.0757,-0.0763,-0.0809,0,0,-0.0783,-0.0786,0,0,0,0,0,0,0,0,-0.0634,-0.0631,-0.0482,-0.0481,-0.0481,-0.0497,-0.0593,-0.0581,-0.0595,-0.059,-0.0594,-0.0594,-0.0658,-0.0673,-0.0724,-0.0817,-0.0823,-0.0784,-0.0788,-0.0791,-0.0793,0,0,0,0,0,0,0,-0.0635,-0.0631,-0.0494,-0.0478,-0.0477,-0.0532,-0.0534,-0.0595,-0.0656,-0.0591,-0.0591,-0.0536,-0.0664,-0.0718,-0.0728,-0.0826,-0.0784,-0.079,-0.0794,-0.0796,-0.1009,-0.1011,0,0,0,0,0,0,-0.0556,-0.0631,-0.0492,-0.049,-0.0519,-0.0526,-0.0529,-0.0521,-0.0652,-0.066,-0.0536,-0.0541,-0.0706,-0.0721,-0.0734,-0.0771,-0.0791,-0.0797,-0.0801,-0.1008,-0.101,-0.1012,0,0,0,0,0,0,-0.0561,-0.0546,-0.0491,-0.0531,-0.0523,-0.0519,-0.0512,-0.0521,-0.059,-0.0602,-0.0621,-0.0591,-0.0707,-0.0725,-0.0844,-0.0778,-0.08,-0.0806,-0.1006,-0.1008,-0.1011,-0.0859,0,0,0,0,0,0,-0.0568,-0.055,-0.0554,-0.0526,-0.0516,-0.05,-0.0508,-0.052,-0.0537,-0.0547,-0.0655,-0.0669,-0.0708,-0.0835,-0.0851,-0.0787,-0.0811,-0.1004,-0.1007,-0.101,-0.0862,-0.0856,-0.0851,0,0,0,0,0,-0.0576,-0.0537,-0.0556,-0.0537,-0.0512,-0.0497,-0.0506,-0.0523,-0.054,-0.0589,-0.0679,-0.0667,-0.0863,-0.0844,-0.0862,-0.0798,-0.1002,-0.1006,-0.101,-0.0864,-0.0857,-0.0851,0,0,0,0,0,0,-0.0622,-0.0541,-0.0562,-0.0506,-0.0515,-0.0505,-0.0514,-0.0534,-0.0647,-0.0657,-0.0722,-0.0745,-0.08,-0.0863,-0.0838,-0.0879,-0.0917,-0.0924,-0.08,-0.0794,-0.0789,-0.0727,-0.0817,0,0,0,0,0,-0.0627,-0.0608,-0.0551,-0.0535,-0.0519,-0.0539,-0.054,-0.0548,-0.0598,-0.0648,-0.0709,-0.0781,-0.0829,-0.0868,-0.0927,-0.0981,-0.1006,-0.095,-0.0945,-0.0939,-0.0909,-0.0939,-0.0931,-0.1024,-0.1024,-0.1024,0,0,-0.0638,-0.0594,-0.0584,-0.0548,-0.0561,-0.0517,-0.0553,-0.0541,-0.0526,-0.0644,-0.0696,-0.0767,-0.0846,-0.0886,-0.0914,-0.0931,-0.0929,-0.0944,-0.0937,-0.091,-0.0942,-0.0932,-0.0923,-0.1027,-0.1026,-0.1026,0,0,-0.0612,-0.0621,-0.0578,-0.0565,-0.0526,-0.0528,-0.0521,-0.0521,-0.0558,-0.061,-0.0667,-0.0732,-0.0823,-0.0854,-0.0881,-0.09,-0.0897,-0.0902,-0.0818,-0.0847,-0.0837,-0.0829,-0.0839,-0.0833,-0.09,-0.0899,-0.0899,0,-0.0609,-0.0551,-0.0576,-0.0515,-0.0469,-0.0521,-0.0455,-0.0496,-0.0546,-0.0561,-0.0607,-0.0716,-0.0789,-0.0803,-0.0804,-0.0871,-0.0889,-0.0818,-0.083,-0.0823,-0.0817,-0.083,-0.0825,-0.0893,-0.0893,-0.0894,-0.0895,0,-0.0544,-0.0487,-0.0459,-0.0403,-0.0401,-0.0349,-0.0348,-0.0381,-0.0416,-0.0439,-0.0485,-0.0605,-0.0662,-0.0681,-0.0745,-0.0725,-0.0751,-0.0808,-0.0821,-0.0797,-0.0814,-0.0811,-0.0883,-0.0885,-0.0887,-0.0889,0,0,-0.0469,-0.0413,-0.0386,-0.0346,-0.0312,-0.029,-0.0276,-0.0262,-0.024,-0.0322,-0.0306,-0.0402,-0.0467,-0.0507,-0.0587,-0.0614,-0.0595,-0.068,-0.0684,-0.0641,-0.0634,-0.0634,-0.0632,-0.0643,-0.0642,-0.0641,-0.0657,0,-0.0379,-0.0245,-0.0247,-0.0142,-0.0066,-0.0104,-0.0084,-0.0103,-0.0148,-0.0166,-0.0266,-0.0299,-0.04,-0.0422,-0.0464,-0.0567,-0.0583,-0.0584,-0.0706,-0.0709,-0.0672,-0.0627,-0.0586,-0.0595,-0.0655,-0.0655,-0.0654,0,-0.0252,-0.0179,-0.0054,0.0019,0.0047,0.0082,0.0109,0.0117,0.0067,0.0023,-0.0035,-0.0123,-0.0184,-0.0279,-0.0399,-0.0392,-0.0489,-0.0568,-0.0572,-0.0615,-0.0703,-0.0639,-0.0589,-0.065,-0.0651,-0.0651,-0.0651,0,-0.0152,-0.0018,0.0074,0.0108,0.0163,0.0195,0.0211,0.0184,0.0197,0.014,0.0141,0.0034,-0.0012,-0.014,-0.032,-0.0352,-0.0443,-0.0523,-0.0605,-0.0607,-0.0616,-0.062,-0.0582,-0.0582,-0.0582,-0.0582,-0.0582,0,-0.0003,0.0093,0.0133,0.0194,0.0304,0.0292,0.0372,0.0361,0.0351,0.0378,0.0243,0.0246,0.0023,-0.0072,-0.0246,-0.0401,-0.0392,-0.0556,-0.0601,-0.0567,-0.0566,-0.0663,-0.0672,-0.0583,-0.0583,-0.0583,-0.0583,0,0.0118,0.0145,0.0261,0.0328,0.0358,0.0429,0.049,0.0531,0.0509,0.0544,0.0535,0.042,0.0291,0.0079,-0.0128,-0.029,-0.0454,-0.0513,-0.0446,-0.0482,-0.0614,-0.0616,-0.0593,-0.0593,-0.0592,-0.0592,-0.0592,0,0.0186,0.026,0.0354,0.0408,0.0448,0.0542,0.0597,0.0607,0.0652,0.0654,0.0684,0.0585,0.0514,0.0222,-0.0069,-0.0334,-0.041,-0.0472,-0.0536,-0.0563,-0.061,-0.0613,-0.0615,-0.0495,-0.0494,-0.0493,-0.0492,0,0.0314,0.0333,0.0405,0.0526,0.0598,0.0692,0.0781,0.0853,0.0859,0.0899,0.0932,0.0889,0.0607,0.0348,-0.0017,-0.0209,-0.043,-0.0466,-0.0501,-0.0499,-0.0473,-0.0519,-0.0524,-0.0486,-0.0487,-0.0487,-0.0488,-0.0488,0.0382,0.0452,0.0523,0.0637,0.0722,0.0834,0.094,0.1016,0.1122,0.1193,0.1128,0.1065,0.0761,0.0305,-0.0014,-0.0362,-0.037,-0.0501,-0.0503,-0.0505,-0.0491,-0.0467,-0.0475,-0.0476,-0.0476,-0.0477,-0.0477,0,0.0469,0.0528,0.063,0.0756,0.0862,0.0893,0.1049,0.1156,0.1303,0.1314,0.1337,0.1071,0.0758,0.0393,-0.01,-0.0395,-0.0439,-0.0498,-0.0487,-0.049,-0.0493,-0.048,-0.046,-0.0461,-0.0462,-0.0463,0,0,0.0513,0.0614,0.066,0.0844,0.0938,0.1111,0.1214,0.1362,0.1431,0.1491,0.1433,0.1309,0.0865,0.052,0.0116,-0.0173,-0.027,-0.0236,-0.0214,-0.0155,-0.0155,-0.0457,-0.0434,0,0,0,0,0]}],[{"header":{"parameterUnit":"m.s-1","parameterCategory":2,"la1":30.2991,"la2":30.254,"lo1":-89.0895,"lo2":-89.0444,"dy":0.0017,"dx":0.0017,"nx":28,"ny":28,"refTime":"2025-01-19T09:00:00:Z","depth":"4","parameterNumber":2,"parameterNumberName":"U-component_of_CURRENTS"},"data":[0,0,0,0,0,0,0,0,0,0,0,0,0,0,0,0,0,0,0,0,0,0,0,0,0,0,0,0,0,0,0,0,0,0,0,0,0,0,0,0,0,0,0,0,0,0,0,0,0,0,0,0,0,0,0,0,0,0,0.0733,0.0735,0,0.091,0.0912,0.0914,0.1031,0.1032,0.1033,0.1033,0.1097,0.1098,0.1099,0,0,0,0,0,0,0,0,0,0,0,0,0,0.0586,0.0587,0.0733,0.0735,0.0737,0.0909,0.0912,0.0914,0.1031,0.1032,0.1033,0.1034,0.1096,0.1097,0.1099,0,0,0,0,0,0,0,0,0,0,0,0,0,0.0695,0.0588,0.0733,0.0815,0.0825,0.0909,0.0912,0.0915,0.1031,0.1032,0.1033,0.1034,0.1096,0.1097,0.1099,0.1088,0,0,0.1104,0.1104,0,0,0,0,0,0,0,0,0.0689,0.0701,0.0801,0.081,0.082,0.0949,0.0883,0.0967,0.1031,0.0954,0.1033,0.1035,0.1035,0.1042,0.1076,0.1091,0.1094,0.1104,0.1105,0.1105,0.1106,0,0,0,0,0,0,0,0.0681,0.0694,0.0804,0.0803,0.0815,0.0874,0.089,0.0901,0.0985,0.0961,0.0969,0.0987,0.104,0.1074,0.1078,0.1095,0.1104,0.1105,0.1106,0.1107,0.1289,0.1293,0,0,0,0,0,0,0.0651,0.0687,0.0799,0.0809,0.0755,0.0875,0.0893,0.0907,0.0988,0.1002,0.0986,0.0991,0.1071,0.1076,0.108,0.1233,0.1105,0.1107,0.1108,0.1285,0.129,0.1294,0,0,0,0,0,0,0.0647,0.0659,0.0792,0.0752,0.0772,0.0876,0.0891,0.091,0.1008,0.1008,0.102,0.1071,0.1072,0.1078,0.1097,0.123,0.1108,0.1109,0.1281,0.1287,0.1292,0.1435,0,0,0,0,0,0,0.0642,0.0657,0.0691,0.0749,0.0773,0.087,0.0891,0.0913,0.1013,0.1024,0.1083,0.1087,0.1073,0.1095,0.1099,0.123,0.111,0.1276,0.1283,0.129,0.1425,0.1445,0.1461,0,0,0,0,0,0.0636,0.0672,0.0691,0.0706,0.0804,0.0872,0.0891,0.0968,0.1016,0.1062,0.1074,0.1089,0.1148,0.1096,0.11,0.1236,0.1272,0.1281,0.129,0.1417,0.1441,0.1461,0,0,0,0,0,0,0.0639,0.0689,0.0711,0.0764,0.0824,0.0892,0.0947,0.1007,0.1064,0.1089,0.1087,0.109,0.119,0.1169,0.1112,0.1314,0.1235,0.1245,0.1331,0.1353,0.1371,0.1382,0.1112,0,0,0,0,0,0.0646,0.0688,0.0738,0.0791,0.0812,0.0893,0.0946,0.1008,0.1051,0.1087,0.111,0.1156,0.1224,0.1244,0.1284,0.1345,0.1342,0.1453,0.1471,0.1486,0.1501,0.1672,0.1708,0.1323,0.1323,0.1323,0,0,0.0666,0.07,0.0729,0.0795,0.0844,0.0912,0.093,0.1028,0.1128,0.1076,0.1193,0.1219,0.1255,0.1348,0.1395,0.1346,0.1567,0.1497,0.151,0.1516,0.1685,0.1723,0.1756,0.1329,0.1328,0.1327,0,0,0.0711,0.0746,0.079,0.0843,0.0929,0.0973,0.1014,0.11,0.1181,0.1264,0.1295,0.1353,0.1431,0.1478,0.1517,0.1649,0.1672,0.1722,0.1811,0.1978,0.2012,0.2041,0.1965,0.1987,0.1718,0.1719,0.1719,0,0.0742,0.0804,0.082,0.088,0.0939,0.1006,0.1083,0.1177,0.1272,0.1335,0.1319,0.1477,0.1497,0.1639,0.1705,0.1696,0.1735,0.1722,0.2004,0.2035,0.2063,0.1978,0.2001,0.1727,0.1726,0.1725,0.1724,0,0.0807,0.0885,0.0917,0.1005,0.1059,0.1152,0.124,0.1323,0.1408,0.1499,0.1651,0.1655,0.1749,0.18,0.1797,0.2033,0.1968,0.202,0.1948,0.2111,0.2008,0.2029,0.1738,0.1735,0.1733,0.1731,0,0,0.0795,0.0942,0.0952,0.1039,0.1149,0.1207,0.1333,0.147,0.1564,0.1686,0.1812,0.1947,0.1978,0.2023,0.2047,0.2172,0.2355,0.2208,0.2213,0.2123,0.2603,0.2398,0.2397,0.2524,0.2532,0.2538,0.2404,0,0.0855,0.0999,0.1041,0.1202,0.129,0.1362,0.1472,0.1608,0.1682,0.1806,0.1922,0.2065,0.2071,0.2132,0.2273,0.236,0.2443,0.2376,0.2464,0.246,0.2262,0.243,0.2563,0.242,0.2424,0.2428,0.243,0,0.0888,0.0994,0.1157,0.1333,0.1369,0.1484,0.1613,0.1719,0.1889,0.1964,0.2098,0.218,0.2368,0.237,0.2577,0.2567,0.2617,0.2643,0.2641,0.2429,0.2304,0.2256,0.2468,0.2465,0.2462,0.2459,0.2457,0,0.0865,0.1065,0.1213,0.128,0.1475,0.1577,0.1679,0.18,0.1877,0.2092,0.2147,0.2362,0.2469,0.2643,0.2677,0.2712,0.2842,0.2876,0.2682,0.2655,0.2806,0.2777,0.3059,0.3059,0.3059,0.306,0.306,0,0.0903,0.1028,0.1256,0.1339,0.1504,0.164,0.176,0.1867,0.2014,0.2097,0.2272,0.233,0.2596,0.2662,0.272,0.2712,0.288,0.2709,0.2676,0.2843,0.2822,0.281,0.2783,0.3054,0.3055,0.3056,0.3057,0,0.0873,0.1021,0.1192,0.1429,0.1503,0.1629,0.1797,0.1861,0.203,0.2119,0.2226,0.2401,0.2516,0.2585,0.2767,0.2711,0.2744,0.2692,0.269,0.2654,0.2404,0.2386,0.2489,0.2482,0.2476,0.2472,0.2468,0,0.0886,0.0992,0.1199,0.1281,0.1417,0.1596,0.1675,0.1864,0.1907,0.2102,0.2146,0.2316,0.24,0.2386,0.2545,0.2553,0.2569,0.2491,0.2632,0.2422,0.2379,0.237,0.236,0.2458,0.2457,0.2455,0.2454,0,0.0909,0.0984,0.1089,0.1224,0.1359,0.1445,0.1602,0.1635,0.1819,0.1965,0.2041,0.2118,0.2185,0.2291,0.2283,0.2316,0.2519,0.2432,0.2447,0.258,0.2386,0.2347,0.2344,0.2434,0.2437,0.2439,0.244,0,0.0895,0.0939,0.1047,0.1164,0.1278,0.1322,0.1396,0.1501,0.1583,0.1817,0.1823,0.1987,0.2143,0.216,0.2165,0.2171,0.2207,0.2165,0.2195,0.2219,0.2213,0.1933,0.1839,0,0,0,0,0,0.0895,0.0908,0.0987,0.1078,0.1165,0.1226,0.1352,0.1427,0.1589,0.1593,0.1718,0.1777,0.1863,0.195,0.1919,0.2077,0.2208,0.2031,0.2173,0.2323,0.2346,0.2376,0,0,0,0,0,0,0.0891,0.0936,0.0945,0.0981,0.102,0.1093,0.1166,0.1271,0.1286,0.1467,0.1522,0.1662,0.1767,0.1858,0.1882,0.1907,0.196,0.2137,0.2132,0.231,0.2331,0.235,0.2388,0,0,0,0,0]},{"header":{"parameterUnit":"m.s-1","parameterCategory":2,"la1":30.2991,"la2":30.254,"lo1":-89.0895,"lo2":-89.0444,"dy":0.0017,"dx":0.0017,"nx":28,"ny":28,"refTime":"2025-01-19T09:00:00:Z","depth":"4","parameterNumber":3,"parameterNumberName":"V-component_of_CURRENTS"},"data":[0,0,0,0,0,0,0,0,0,0,0,0,0,0,0,0,0,0,0,0,0,0,0,0,0,0,0,0,0,0,0,0,0,0,0,0,0,0,0,0,0,0,0,0,0,0,0,0,0,0,0,0,0,0,0,0,0,0,0.0713,0.0712,0,0.0683,0.0682,0.0682,0.0645,0.0645,0.0645,0.0644,0.0633,0.0633,0.0633,0,0,0,0,0,0,0,0,0,0,0,0,0,0.07,0.07,0.0713,0.0712,0.0712,0.0683,0.0682,0.0681,0.0646,0.0645,0.0645,0.0644,0.0633,0.0633,0.0633,0,0,0,0,0,0,0,0,0,0,0,0,0,0.0689,0.07,0.0713,0.0692,0.069,0.0683,0.0682,0.0681,0.0646,0.0645,0.0645,0.0644,0.0633,0.0633,0.0633,0.0644,0,0,0.0633,0.0633,0,0,0,0,0,0,0,0,0.069,0.0689,0.0695,0.0694,0.0691,0.0669,0.0673,0.0671,0.0646,0.066,0.0644,0.0644,0.0648,0.0647,0.0639,0.0644,0.0643,0.0633,0.0633,0.0633,0.0633,0,0,0,0,0,0,0,0.0691,0.069,0.0699,0.0695,0.0693,0.0671,0.0669,0.0672,0.0657,0.0659,0.0657,0.0657,0.0647,0.0639,0.0639,0.0643,0.0633,0.0633,0.0633,0.0633,0.0669,0.067,0,0,0,0,0,0,0.0701,0.0691,0.07,0.0698,0.0692,0.0672,0.067,0.0675,0.0656,0.0653,0.0658,0.0655,0.064,0.0639,0.0639,0.0647,0.0633,0.0633,0.0633,0.0668,0.067,0.0671,0,0,0,0,0,0,0.0701,0.0703,0.0701,0.0695,0.0694,0.0674,0.0679,0.0675,0.0679,0.0655,0.0652,0.0668,0.0639,0.0639,0.0654,0.0647,0.0633,0.0633,0.0667,0.0669,0.067,0.0667,0,0,0,0,0,0,0.0701,0.0703,0.0721,0.0696,0.0694,0.0705,0.068,0.0675,0.068,0.0677,0.0663,0.066,0.0639,0.0654,0.0654,0.0646,0.0633,0.0666,0.0668,0.067,0.0666,0.0668,0.067,0,0,0,0,0,0.0701,0.0708,0.0722,0.0724,0.0717,0.0706,0.0703,0.0685,0.0682,0.0686,0.0681,0.0661,0.0664,0.0655,0.0655,0.0647,0.0665,0.0667,0.067,0.0665,0.0668,0.067,0,0,0,0,0,0,0.0707,0.0705,0.0719,0.0728,0.073,0.0701,0.0706,0.0699,0.0698,0.0703,0.0678,0.0676,0.0676,0.0679,0.0669,0.0666,0.066,0.0662,0.0657,0.066,0.0662,0.0645,0.0633,0,0,0,0,0,0.0724,0.0739,0.0731,0.0748,0.0748,0.0738,0.0737,0.0729,0.072,0.0718,0.0698,0.0692,0.0684,0.0688,0.0676,0.069,0.0644,0.0686,0.0688,0.0689,0.0678,0.0615,0.0608,0.0677,0.0677,0.0677,0,0,0.0734,0.0738,0.0748,0.0753,0.0754,0.0753,0.0735,0.074,0.0721,0.072,0.0694,0.0695,0.0689,0.0684,0.0686,0.0688,0.0645,0.0692,0.0693,0.068,0.0616,0.0608,0.0602,0.0679,0.0679,0.0678,0,0,0.0758,0.0767,0.0788,0.079,0.0801,0.0781,0.079,0.0768,0.0739,0.0735,0.0717,0.0716,0.0713,0.0689,0.0683,0.0699,0.0651,0.0711,0.0713,0.0652,0.0644,0.0637,0.0555,0.0541,0.0721,0.0721,0.0721,0,0.0775,0.0789,0.0793,0.081,0.0808,0.0797,0.0805,0.0771,0.0752,0.0725,0.073,0.0711,0.0701,0.0686,0.0688,0.0696,0.0656,0.0699,0.065,0.0642,0.0635,0.0552,0.0536,0.0721,0.0721,0.0721,0.0721,0,0.0813,0.082,0.0828,0.0844,0.085,0.0847,0.0814,0.0796,0.077,0.0731,0.0704,0.0697,0.0687,0.0688,0.0693,0.0653,0.0637,0.0648,0.0633,0.0627,0.0541,0.0525,0.0721,0.0721,0.0721,0.0721,0,0,0.082,0.0848,0.0849,0.0851,0.0858,0.0855,0.0831,0.0784,0.0761,0.0726,0.0693,0.067,0.0669,0.0665,0.0671,0.063,0.0538,0.0629,0.0626,0.0529,0.0387,0.0393,0.0375,0.0546,0.0544,0.0542,0.0341,0,0.0834,0.0867,0.0878,0.088,0.0873,0.0863,0.0837,0.0805,0.0769,0.0728,0.0686,0.0665,0.0656,0.0678,0.0626,0.0574,0.0498,0.059,0.0424,0.0418,0.0409,0.0357,0.0535,0.0328,0.0325,0.0322,0.032,0,0.0853,0.0853,0.0882,0.0866,0.0866,0.0878,0.0849,0.0826,0.0768,0.0739,0.0715,0.0691,0.0631,0.0636,0.0484,0.055,0.0457,0.0402,0.0393,0.0386,0.0394,0.0343,0.0289,0.0291,0.0294,0.0296,0.0298,0,0.0835,0.0843,0.0861,0.0863,0.0859,0.0865,0.0861,0.0834,0.0815,0.0761,0.0756,0.0675,0.0649,0.0532,0.0419,0.0448,0.0242,0.0262,0.0159,0.0157,0.0212,0.0222,0.0114,0.0114,0.0114,0.0115,0.0116,0,0.0817,0.0815,0.0856,0.0853,0.0849,0.0867,0.0876,0.0848,0.0848,0.0833,0.0769,0.0751,0.0625,0.0511,0.0396,0.0221,0.0203,0.0129,0.0102,0.0217,0.023,0.0199,0.0211,0.0107,0.0109,0.0111,0.0112,0,0.0792,0.0825,0.0829,0.0841,0.0848,0.0855,0.0901,0.091,0.089,0.0887,0.0875,0.0782,0.063,0.0481,0.0285,0.0192,0.0031,-0.0035,0.007,0.0057,-0.0015,-0.0,-0.0182,-0.0183,-0.0185,-0.0186,-0.0187,0,0.0784,0.0791,0.0832,0.0852,0.0863,0.0888,0.0915,0.0925,0.095,0.0906,0.0901,0.0771,0.0687,0.039,0.0238,-0.0025,-0.0044,-0.0149,-0.0065,-0.004,-0.0048,-0.0031,-0.0014,-0.0189,-0.0189,-0.019,-0.019,0,0.0734,0.0781,0.0795,0.0847,0.0889,0.0929,0.0972,0.0989,0.1002,0.0982,0.0913,0.0776,0.0593,0.0394,0.0182,0.0007,-0.008,-0.0163,-0.0161,-0.0082,-0.005,-0.0053,-0.0036,-0.0194,-0.0194,-0.0193,-0.0193,0,0.0715,0.0731,0.0791,0.0835,0.0893,0.0957,0.098,0.1006,0.1021,0.0983,0.0957,0.077,0.0672,0.0405,0.0218,0.0042,0.001,-0.0031,-0.0036,-0.0033,0.0094,0.0162,0.0033,0,0,0,0,0,0.0686,0.0723,0.077,0.0835,0.0906,0.0955,0.1011,0.104,0.1049,0.1009,0.099,0.0826,0.0556,0.0435,0.0258,0.019,-0.0026,-0.0024,-0.0076,-0.022,-0.0215,-0.0087,0,0,0,0,0,0,0.0668,0.0717,0.076,0.0838,0.0896,0.0982,0.1032,0.105,0.1027,0.1004,0.086,0.0789,0.0522,0.066,0.0258,0.0203,0.0147,-0.0152,-0.0156,-0.0223,-0.0218,-0.0214,-0.0081,0,0,0,0,0]}]]